Regional Weather Roundup
Issued by NWS

Home | Current Version | Previous Version | Text Only | Print | Product List | Glossary On
Versions: 1 2 3 4 5 6 7 8 9 10 11 12 13 14 15 16 17 18 19 20 21 22 23 24 25 26 27
000
ASUS45 KREV 251110
RWRNV
NEVADA REGIONAL WEATHER ROUNDUP
NATIONAL WEATHER SERVICE RENO NV
400 AM PDT THU MAY 25 2017

NOTE: "FAIR" INDICATES FEW OR NO CLOUDS BELOW 12,000 FEET WITH NO
SIGNIFICANT WEATHER AND/OR OBSTRUCTIONS TO VISIBILITY.

NVZ001-003-004-251200-
WESTERN NEVADA

CITY           SKY/WX    TMP DP  RH WIND       PRES   REMARKS
RENO           CLEAR     57  27  31 CALM      29.76R
CARSON CITY    FAIR      46  27  46 N6        29.77S
MINDEN         FAIR      41  32  70 E5        29.77R
FALLON         CLEAR     58  28  32 N12       29.74R
LOVELOCK       MOCLDY    57  31  37 N12       29.76R
HAWTHORNE      CLEAR     54  21  28 S5        29.71R
$$

NVZ002-CAZ072-073-251200-
NORTHERN AND CENTRAL SIERRA

CITY           SKY/WX    TMP DP  RH WIND       PRES   REMARKS
S. LAKE TAHOE  CLEAR     42  24  49 CALM      29.82S
TRUCKEE          N/A     32  30  93 CALM      29.83S
SQUAW VLY 8000   N/A     37  25  60 S9          N/A
SUSANVILLE     PTCLDY    54  30  40 NE8       29.78R
MAMMOTH LAKES  FAIR      60   7  12 W25G37    29.86F
BRIDGEPORT     FAIR      55  26  32 SW21G31   29.79F
$$

NVZ030-031-036-251200-
NORTHERN NEVADA

CITY           SKY/WX    TMP DP  RH WIND       PRES   REMARKS
ELKO           CLOUDY    50  36  58 SW8       29.76R
WINNEMUCCA     CLOUDY    47  42  83 W9        29.79R
$$

NVZ035-037-251200-
CENTRAL NEVADA

CITY           SKY/WX    TMP DP  RH WIND       PRES   REMARKS
ELY            MOCLDY    45  35  68 W7        29.76F
EUREKA           N/A     46  36  68 CALM      29.79R
$$

NVZ013-014-251200-
SOUTH CENTRAL NEVADA

CITY           SKY/WX    TMP DP  RH WIND       PRES   REMARKS
TONOPAH        MOCLDY    59  14  17 N15       29.73F
$$

NVZ017-020-022-251200-
SOUTHERN NEVADA

CITY           SKY/WX    TMP DP  RH WIND       PRES   REMARKS
LAS VEGAS      PTCLDY    80  27  14 S14G20    29.51R
N. LAS VEGAS   CLEAR     77  33  20 N6        29.51R
NELLIS AFB     CLEAR     79  32  18 S17       29.50S
HENDERSON      CLEAR     77  31  18 SW20      29.56F
MERCURY        CLEAR     70  32  24 N7        29.60S
$$




USA.gov is the U.S. government's official web portal to all federal, state and local government web resources and services.